Погода в Преславе

Украина / Запорожская область     46°41′05″N   36°12′57″E
темп.,
°C
ветер,
м/с
пор.,
м/с
влажн.,
%
обл.,
%
осадки,
мм/ч
давл.,
гПа
погр.,
м
15 апреля, чт
чт1500:00+8ююв5992100 0.4 1016412
03:00+8ююв599136 0.6 1016340
06:00+7ююв479586 0.1 1015162
09:00+10ю578533 0.4 1015400
12:00+11ююз687984 0.1 1016549
15:00+12ю57685 0.1 1015543
18:00+11ю47775 0.0 1015446
21:00+8юз59873 0.0 1016248
16 апреля, пт
пт1600:00+7юз510863 0.0 1016341
03:00+7юз48875 0.0 1016209
06:00+7юз588996 0.0 1016381
09:00+9юз5782100 0.0 1018529
12:00+10ююз677729 0.1 1018584
15:00+11ююз676861 0.1 1019668
18:00+10ю57705 0.0 1019346
21:00+8ююз358413 0.0 101980
17 апреля, сб
сб1700:00+8з587848 0.2 1020216
03:00+5зсз47865 0.2 1021209
06:00+4зсз47875 0.0 1022199
09:00+8з467212 0.0 1022671
12:00+9зюз557076 0.1 1023921
15:00+10з346694 0.1 1023936
18:00+10зюз2369100 0.0 1022688
21:00+8юз2276100 0.0 102361
18 апреля, вс
вс1800:00+8с117695 0.0 102212
03:00+7ссв2275100 0.0 102125
06:00+7св3472100 0.0 102172
09:00+10всв4465100 0.0 1020440
12:00+12вюв3458100 0.0 1020908
15:00+11ююв4363100 0.0 1021387
18:00+10юв336399 0.0 1021216
21:00+8в116794 0.0 102210
19 апреля, пн
пн1900:00+8св336979 0.0 102233
03:00+7св46785 0.0 102185
06:00+7св59872 0.0 1021161
09:00+11всв6867100 0.0 1022436
12:00+13в895980 0.0 1021911
15:00+14в91156100 0.0 1020834
18:00+13в9136297 0.0 1019771
21:00+11в121974100 0.0 1018609